Location: Bonac
(42.8765°N, 0.9753°E)
Time: 17:53:34
(UTC+00:00)

Cosmos 332 Rocket - Visible Passes

Search period start: 11 April 2026 00:00
Search period end: 21 April 2026 00:00
Orbit: 671 x 694 km, 74.0° (Epoch: 11 April)

Date Brightness Start Highest point End Pass type
(mag) Time Alt. Az. Time Alt. Az. Time Alt. Az.
11 Apr 6.1 01:18:00 10° NNW 01:19:18 18° NNW 01:19:18 18° NNW visible
12 Apr 6.4 00:15:57 10° N 00:17:31 17° NNE 00:17:31 17° NNE visible
12 Apr 6.4 01:55:47 10° NW 01:55:59 11° NW 01:55:59 11° NW visible
13 Apr 6.2 00:52:54 10° NNW 00:54:14 18° NNW 00:54:14 18° NNW visible
13 Apr 6.3 23:50:54 10° N 23:52:30 17° NNE 23:52:30 17° NNE visible
14 Apr 6.4 01:30:39 10° NW 01:30:57 12° NW 01:30:57 12° NW visible
15 Apr 6.2 00:27:49 10° NNW 00:29:15 19° N 00:29:15 19° N visible
15 Apr 6.3 23:25:50 10° N 23:27:34 17° NNE 23:27:34 17° NNE visible
16 Apr 6.4 01:05:31 10° NNW 01:06:01 13° NW 01:06:01 13° NW visible
17 Apr 6.1 00:02:43 10° NNW 00:04:21 21° N 00:04:21 21° N visible
17 Apr 6.1 23:00:47 10° N 23:02:42 18° NNE 23:02:42 18° NNE visible
18 Apr 6.3 00:40:23 10° NNW 00:41:09 14° NW 00:41:09 14° NW visible
18 Apr 5.9 23:37:37 10° NNW 23:39:32 23° N 23:39:32 23° N visible
19 Apr 6.0 22:35:43 10° N 22:37:55 18° NNE 22:37:55 18° NNE visible
20 Apr 6.2 00:15:14 10° NNW 00:16:23 17° NW 00:16:23 17° NW visible
20 Apr 5.7 23:12:30 10° NNW 23:14:47 27° N 23:14:47 27° N visible
